| time (UTC) | temp F | wind direction | speed knots | gust knots | rain 1hr in | rain 24hr in | rain mn in | humidity % | barometer mb |
| 20260504044535 | 47 | 0 | 0.0 | 0.0 | 0.00 | 0.11 | 0.11 | 83 | 1005.3 |
| 20260504043040 | 47 | 0 | 0.0 | 0.0 | 0.00 | 0.11 | 0.11 | 81 | 1005.4 |
| 20260504041528 | 48 | 0 | 0.0 | 0.0 | 0.00 | 0.11 | 0.11 | 80 | 1005.3 |
| 20260504040028 | 49 | 0 | 0.0 | 0.0 | 0.00 | 0.11 | 0.11 | 78 | 1005.4 |
| 20260504034534 | 50 | 0 | 0.0 | 0.0 | 0.00 | 0.11 | 0.11 | 75 | 1005.4 |
| 20260504033029 | 50 | 0 | 0.0 | 0.9 | 0.00 | 0.11 | 0.11 | 74 | 1005.4 |
| 20260504031530 | 51 | 0 | 0.0 | 0.0 | 0.00 | 0.11 | 0.11 | 71 | 1005.4 |
| 20260504030030 | 52 | 0 | 0.0 | 0.0 | 0.00 | 0.11 | 0.11 | 69 | 1005.4 |
| 20260504024530 | 54 | 0 | 0.0 | 0.0 | 0.00 | 0.11 | 0.11 | 71 | 1005.2 |
| 20260504023031 | 56 | 0 | 0.0 | 0.0 | 0.00 | 0.11 | 0.11 | 59 | 1005.2 |
| 20260504021534 | 58 | 0 | 0.0 | 0.0 | 0.00 | 0.11 | 0.11 | 55 | 1005.1 |
| 20260504020037 | 60 | 0 | 0.0 | 0.0 | 0.00 | 0.11 | 0.11 | 48 | 1004.9 |
| 20260504014536 | 61 | 0 | 0.0 | 0.0 | 0.00 | 0.11 | 0.11 | 45 | 1004.8 |
| 20260504013031 | 64 | 0 | 0.0 | 0.0 | 0.00 | 0.11 | 0.11 | 42 | 1004.6 |
| 20260504011533 | 66 | 0 | 0.0 | 0.9 | 0.00 | 0.11 | 0.11 | 39 | 1004.5 |
| 20260504010030 | 68 | 259 | 0.0 | 2.6 | 0.00 | 0.11 | 0.11 | 38 | 1004.4 |
| 20260504004534 | 69 | 225 | 0.9 | 2.6 | 0.00 | 0.11 | 0.11 | 37 | 1004.3 |
| 20260504003032 | 71 | 239 | 0.9 | 5.2 | 0.00 | 0.11 | 0.11 | 36 | 1004.0 |
| 20260504001535 | 71 | 264 | 3.5 | 7.0 | 0.00 | 0.11 | 0.11 | 34 | 1003.9 |
| 20260504000029 | 72 | 257 | 2.6 | 7.0 | 0.00 | 0.11 | 0.11 | 37 | 1003.8 |
| 20260503234530 | 73 | 243 | 3.5 | 7.8 | 0.00 | 0.11 | 0.11 | 36 | 1003.8 |
| 20260503233030 | 74 | 240 | 2.6 | 7.8 | 0.00 | 0.11 | 0.11 | 36 | 1003.8 |
| 20260503231532 | 74 | 270 | 3.5 | 7.8 | 0.00 | 0.11 | 0.11 | 36 | 1003.7 |
| 20260503230032 | 74 | 253 | 3.5 | 9.6 | 0.00 | 0.11 | 0.11 | 36 | 1003.8 |
| 20260503224529 | 74 | 281 | 2.6 | 8.7 | 0.00 | 0.11 | 0.11 | 38 | 1003.7 |
| 20260503223031 | 74 | 266 | 3.5 | 8.7 | 0.00 | 0.11 | 0.11 | 37 | 1003.7 |
| 20260503221533 | 73 | 243 | 3.5 | 12.2 | 0.00 | 0.11 | 0.11 | 37 | 1003.7 |
| 20260503220029 | 73 | 227 | 2.6 | 9.6 | 0.00 | 0.11 | 0.11 | 39 | 1003.9 |
| 20260503214540 | 72 | 267 | 1.7 | 7.8 | 0.00 | 0.11 | 0.11 | 44 | 1003.9 |
| 20260503213031 | 73 | 221 | 5.2 | 10.4 | 0.00 | 0.11 | 0.11 | 42 | 1004.0 |
| 20260503211534 | 72 | 264 | 5.2 | 12.2 | 0.00 | 0.11 | 0.11 | 43 | 1004.0 |
| 20260503210033 | 71 | 276 | 4.3 | 11.3 | 0.00 | 0.11 | 0.11 | 43 | 1004.3 |
| 20260503204534 | 71 | 278 | 5.2 | 13.0 | 0.00 | 0.11 | 0.11 | 45 | 1004.5 |
| 20260503203036 | 70 | 273 | 4.3 | 10.4 | 0.00 | 0.11 | 0.11 | 44 | 1004.9 |
| 20260503201532 | 70 | 217 | 3.5 | 8.7 | 0.00 | 0.11 | 0.11 | 44 | 1005.1 |
| 20260503200037 | 69 | 201 | 3.5 | 11.3 | 0.00 | 0.11 | 0.11 | 45 | 1005.3 |
| 20260503194532 | 69 | 158 | 3.5 | 11.3 | 0.00 | 0.11 | 0.11 | 48 | 1005.6 |
| 20260503193036 | 68 | 281 | 3.5 | 9.6 | 0.00 | 0.11 | 0.11 | 46 | 1005.7 |
| 20260503191531 | 67 | 236 | 6.1 | 14.8 | 0.00 | 0.11 | 0.11 | 49 | 1006.0 |
| 20260503190032 | 66 | 217 | 7.0 | 15.6 | 0.00 | 0.11 | 0.11 | 47 | 1006.1 |
| 20260503184540 | 65 | 236 | 6.1 | 15.6 | 0.00 | 0.11 | 0.11 | 49 | 1006.3 |
| 20260503183035 | 65 | 224 | 5.2 | 13.0 | 0.00 | 0.11 | 0.11 | 48 | 1006.5 |
| 20260503181530 | 65 | 188 | 4.3 | 11.3 | 0.00 | 0.11 | 0.11 | 50 | 1006.6 |
| 20260503180044 | 64 | 253 | 5.2 | 13.0 | 0.00 | 0.11 | 0.11 | 51 | 1006.7 |
| 20260503174543 | 64 | 293 | 6.1 | 13.0 | 0.00 | 0.11 | 0.11 | 52 | 1007.0 |
| 20260503173040 | 63 | 260 | 5.2 | 17.4 | 0.00 | 0.11 | 0.11 | 51 | 1007.0 |
| 20260503171529 | 62 | 255 | 7.8 | 19.1 | 0.00 | 0.11 | 0.11 | 51 | 1007.3 |
| 20260503081538 | 49 | 233 | 3.5 | 7.8 | 0.00 | 0.00 | 0.00 | 56 | 1012.5 |